Bartlesville, OK

2:25 AM CST on November 21, 2017 (GMT -0600)
Bartlesville Municipal

Weather History for KBVO - March, 2013

Change the Weather History Date:

Tuesday, March 19, 2013

  Actual Average Record
Temperature  
Mean Temperature 42 °F -  
Max Temperature 57 °F 63 °F 90 °F (2017)
Min Temperature 28 °F 38 °F 14 °F (1965)
Degree Days  
Heating Degree Days 22    
Moisture  
Dew Point 24 °F    
Average Humidity 52    
Maximum Humidity 89    
Minimum Humidity 21    
Precipitation  
Precipitation 0.00 in - - ()
Sea Level Pressure  
Sea Level Pressure 30.18 in    
Wind  
Wind Speed 4 mph (NE)    
Max Wind Speed 14 mph    
Max Gust Speed 25 mph    
Visibility 10 miles    
Events      
Averages and records for this station are not official NWS values.
T = Trace of Precipitation, MM = Missing Value Source: NWS Daily Summary

Daily Weather History Graph

Daily Weather History Graph

Search for Another Location

Airport or City:

Trip Planner

Search our weather history database for the weather conditions in past years. The results will help you decide how hot, cold, wet, or windy it might be!

Date:

Astronomy

Mar. 19, 2013 Rise Set
Actual Time 7:28 AM CDT 7:35 PM CDT
Civil Twilight 7:02 AM CDT 8:01 PM CDT
Nautical Twilight 6:32 AM CDT 8:31 PM CDT
Astronomical Twilight 6:02 AM CDT 9:01 PM CDT
Moon 12:28 PM CDT (3/19) 2:14 AM CDT (3/19)
Length of Visible Light 12h 58m
Length of Day
12h 06m
Waxing Crescent, 50% of the Moon is Illuminated
Mar 19
Waxing Crescent
Mar 19
First Quarter
Mar 27
Full
Apr 2
Last Quarter
Apr 10
New

Hourly Weather History & Observations

Time (CDT) Temp. Windchill Dew Point Humidity Pressure Visibility Wind Dir Wind Speed Gust Speed Precip Events Conditions
1:53 AM 28.9 °F - 26.1 °F 89% 30.06 in 10.0 mi Calm Calm - N/A   Clear
2:53 AM 34.0 °F - 25.0 °F 70% 30.09 in 10.0 mi Calm Calm - N/A   Clear
3:53 AM 37.9 °F 32.7 °F 26.1 °F 62% 30.08 in 10.0 mi NNE 6.9 mph - N/A   Clear
4:53 AM 35.1 °F 30.1 °F 25.0 °F 67% 30.11 in 10.0 mi North 5.8 mph - N/A   Clear
5:53 AM 34.0 °F - 24.1 °F 67% 30.13 in 10.0 mi Calm Calm - N/A   Clear
6:53 AM 32.0 °F - 24.1 °F 73% 30.17 in 10.0 mi Calm Calm - N/A   Clear
7:53 AM 28.0 °F - 23.0 °F 81% 30.18 in 10.0 mi Calm Calm - N/A   Clear
8:53 AM 37.9 °F 34.4 °F 26.1 °F 62% 30.21 in 10.0 mi ENE 4.6 mph - N/A   Clear
9:53 AM 44.1 °F 41.5 °F 27.0 °F 51% 30.21 in 10.0 mi East 4.6 mph - N/A   Clear
10:53 AM 48.9 °F - 15.1 °F 26% 30.22 in 10.0 mi East 13.8 mph 18.4 mph N/A   Clear
11:53 AM 51.1 °F - 15.1 °F 24% 30.21 in 10.0 mi East 10.4 mph - N/A   Clear
12:53 PM 54.0 °F - 14.0 °F 21% 30.19 in 10.0 mi East 10.4 mph - N/A   Clear
1:53 PM 55.9 °F - 16.0 °F 21% 30.17 in 10.0 mi East 8.1 mph 16.1 mph N/A   Clear
2:53 PM 57.0 °F - 18.0 °F 22% 30.15 in 10.0 mi NE 5.8 mph - N/A   Clear
3:53 PM 57.9 °F - 19.0 °F 22% 30.14 in 10.0 mi Variable 4.6 mph - N/A   Clear
4:53 PM 57.0 °F - 19.9 °F 24% 30.15 in 10.0 mi Variable 5.8 mph - N/A   Clear
5:53 PM 55.0 °F - 24.1 °F 30% 30.16 in 10.0 mi NE 11.5 mph 21.9 mph N/A   Mostly Cloudy
6:53 PM 48.9 °F - 27.0 °F 43% 30.19 in 10.0 mi NE 13.8 mph 25.3 mph N/A   Clear
7:53 PM 45.0 °F 39.3 °F 27.0 °F 49% 30.23 in 10.0 mi NE 11.5 mph 17.3 mph N/A   Clear
8:53 PM 43.0 °F 38.2 °F 28.0 °F 56% 30.25 in 10.0 mi NE 8.1 mph - N/A   Clear
9:53 PM 41.0 °F 38.0 °F 30.9 °F 67% 30.27 in 10.0 mi NE 4.6 mph - N/A   Clear
10:53 PM 37.9 °F 33.5 °F 30.9 °F 76% 30.29 in 10.0 mi NNE 5.8 mph - N/A   Clear
11:53 PM 34.0 °F - 30.0 °F 85% 30.28 in 10.0 mi Calm Calm - N/A   Clear